User: anonymous   Login
Location: Hickory_Viewmont
(35.7830°N, 81.3170°W)
Time: 09:32:38
(UTC-04:00)
Language:

Okean-O - Orbit

View from above orbital plane
View from above orbital plane
View from above satellite
View from above satellite

Ground track
Ground track

The orbit data is extracted from the following two-line orbital elements,

1 25860U 99039A   14296.82956462  .00001629  00000-0  24696-3 0  3986
2 25860 098.0613 260.0610 0001499 083.4729 333.9364 14.75483513821127
Epoch (UTC): 23 October 2014 19:54:34
Eccentricity: 0.0001499
inclination: 98.0613°
perigee height: 642 km
apogee height: 644 km
right ascension of ascending node: 260.0610°
argument of perigee: 83.4729°
revolutions per day: 14.75483513
mean anomaly at epoch: 333.9364°
orbit number at epoch: 82112

The dashed part of the orbit path shows where the satellite is in the earth's shadow,  

DLR